Powrót do katalogu

FENGYUN 1C DEB

AktywnySSO
NORAD 29777·DEBRIS·🇨🇳 China

Wystrzelony May 10, 1999 z Taiyuan Satellite Launch Center

Loading…

Następne Przeloty (najbliższe 24 godziny)

TLE

ŚwieżeSource: Space-Track

Epoka: Sep 14, 2026, 10:15 UTC

1 29777U 99025BT  26257.42748414 -.00000044  00000-0  64856-6 0  9997
2 29777  99.2466 319.0781 0092979 183.9220 189.3686 13.92192489998779

Śledź FENGYUN 1C DEB w czasie rzeczywistym z AllMySat

Download on the App Store